Regional Weather Roundup
Issued by NWS

Home | Current Version | Previous Version | Text Only | Print | Product List | Glossary On
Versions: 1 2 3 4 5 6 7 8 9 10 11 12 13 14 15 16 17 18 19 20 21 22 23 24 25 26 27 28 29 30 31 32 33 34 35 36 37 38 39 40 41 42 43 44 45 46 47 48 49 50
000
ASCA42 TJSJ 170611
RWRPR
PUERTO RICO/U.S. VIRGIN ISLANDS HOURLY WEATHER ROUNDUP
NATIONAL WEATHER SERVICE SAN JUAN PR
200 AM AST WED SEP 17 2014

PRZ001-004-170700-
PUERTO RICO

CITY           SKY/WX    TMP DP  RH WIND       PRES   REMARKS
SAN JUAN LMM   PTCLDY    81  75  83 E3        29.97F
CEIBA          PTCLDY    77  73  88 N3        30.00F
$$

PRZ006-007-170700-
U.S. VIRGIN ISLANDS

CITY           SKY/WX    TMP DP  RH WIND       PRES   REMARKS
CHARLOTTE AMA  CLEAR     77  72  83 E6        29.97
CHRISTIANSTED  CLEAR     77  75  94 N5        29.97
$$

HOURLY WEATHER ROUNDUP FOR THE NEWS MEDIA

CITY           SKY/WX    TMP DP  RH WIND       PRES   REMARKS
MIAMI          MOCLDY    79  74  84 NW3       29.99F
ORLANDO        MOCLDY    77  72  84 SW7       29.96F
NEW YORK       PTCLDY    60  51  72 NW12      30.03S
NEWARK         PTCLDY    59  50  72 NW6       30.03S
CHICAGO        CLEAR     55  47  74 SW3       30.08F
HARTFORD       CLEAR     46  45  96 CALM      29.98F FOG
BOSTON         PTCLDY    59  53  80 W3        29.99S
DALLAS         MOCLDY    81  70  69 SE8       30.00F
PHILADELPHIA   CLEAR     59  51  75 CALM      30.04S



USA.gov is the U.S. government's official web portal to all federal, state and local government web resources and services.